Miscellaneous Local Product
Issued by NWS North Platte, NE

Home | Current Version | Previous Version | Text Only | Print | Product List | Glossary On
Versions: 1 2 3 4 5 6 7 8 9 10 11 12 13 14 15 16 17 18 19 20 21 22 23 24 25 26 27 28 29 30 31 32 33 34 35 36 37 38 39 40 41 42 43 44 45 46 47 48 49 50
000
AXUS43 KLBF 212110
MISLBF


WESTERN AND NORTH CENTRAL NEBRASKA HOURLY WEATHER ROUNDUP
NATIONAL WEATHER SERVICE NORTH PLATTE NE
400 PM CDT MON JUL 21 2014

***STATIONS NOT REPORTING VARIABLES SUCH AS SKY/WEATHER OR
PRESSURE ARE PROVIDED BY THE NEBRASKA DEPARTMENT OF
ROADS...RAWS...AND APRS NETWORKS...AND ARE NOT UNDER
NATIONAL WEATHER SERVICE QUALITY CONTROL***

...OBSERVATIONS IN AND NEAR THE EASTERN PANHANDLE OF NEBRASKA...

CITY           SKY/WX    TMP DP  RH WIND       PRES   REMARKS
PINE RIDGE     SUNNY     97  51  21 W12G20    29.90F HX  94
CHADRON        SUNNY    103  41  12 W21G29    29.90R HX  98
ALLIANCE         N/A    102  43  13 W17       29.99S HX  97
SIDNEY         PTSUNNY  100  37  11 W12G18    30.04F HX  95
RUSHVILLE        N/A    107  33   8 W24         N/A  HX 100
CRESCENT LAKE    N/A     99  41  13 W9G16       N/A  HX  94
BIG SPRINGS      N/A     97  57  26 W3          N/A  HX  96
$$

...OBSERVATIONS IN NORTH CENTRAL NEBRASKA...

CITY           SKY/WX    TMP DP  RH WIND       PRES   REMARKS
VALENTINE      SUNNY    104  52  17 W16       29.84F HX 101
THEDFORD       MOSUNNY  104  50  16 SW16      29.90S HX 101
AINSWORTH      MOSUNNY  101  47  16 SW13      29.85F HX  98
O`NEILL        PTSUNNY  102  53  19 S13       29.82S HX 100
BROKEN BOW     PTSUNNY   94  72  48 S8        29.90S HX 102
SPRINGVIEW       N/A    104  55  19 SW13        N/A  HX 102
SARGENT          N/A     97  62  31 SW9         N/A  HX  98
COMSTOCK         N/A     95  80  61 CALM        N/A  HX 113
CHAMBERS         N/A     99  63  30 S6G15       N/A  HX 101
$$

...OBSERVATIONS IN SOUTHWEST NEBRASKA AND FAR NORTHEAST COLORADO...

CITY           SKY/WX    TMP DP  RH WIND       PRES   REMARKS
WRAY             N/A    103  40  11 SE3       30.00F HX  98
HOLYOKE        FAIR      99  57  25 SE10      30.00F HX  97
IMPERIAL       PTSUNNY   99  46  16 E6        29.98F HX  95
OGALLALA       PTSUNNY   96  49  20 CALM      29.97S HX  92
NORTH PLATTE   PTSUNNY   98  59  27 S6        29.93S HX  98
MCCOOK         MOSUNNY   97  61  30 SW5       29.93F HX  97
LEXINGTON      PTSUNNY  102  59  24 SW5       29.91S HX 102
PAXTON           N/A     99  65  32 SW3         N/A  HX 102
BRADY            N/A     92  63  37 CALM        N/A  HX  93
GOTHENBURG       N/A    101  58  24 CALM        N/A  HX 101
CALLAWAY         N/A     85  70  60 SW5         N/A
$$

...NORTH PLATTE AREA...

CITY           SKY/WX    TMP DP  RH WIND       PRES   REMARKS
AIRPORT        PTSUNNY   98  59  27 S6        29.93S HX  98
$$

...SOME WEATHER OBSERVATIONS FROM AROUND THE REGION...

CITY           SKY/WX    TMP DP  RH WIND       PRES   REMARKS
DENVER         PTSUNNY   94  35  12 W7        30.14F
LARAMIE        MOSUNNY   84  37  18 W15G22    30.27S
CHEYENNE       MOSUNNY   89  41  18 SW16G32   30.18F
SCOTTSBLUFF    SUNNY    100  46  16 NW13      30.00F HX  96
RAPID CITY     MOSUNNY   91  58  32 E6        29.86F HX  90
PIERRE         SUNNY    103  62  26 NW16G25   29.70R HX 105
WINNER         FAIR     108  48  13 W17G30    29.76S HX 104
SIOUX FALLS    CLOUDY    84  76  76 S14       29.81F HX  93
OMAHA          MOSUNNY   95  74  50 S16       29.84S HX 105
GRAND ISLAND   PTSUNNY   99  74  44 SW14      29.87F HX 110
KANSAS CITY    PTSUNNY   91  75  59 S18       29.96F HX 101
WICHITA        MOSUNNY   95  71  45 S20G25    29.96F HX 102
HAYS           SUNNY     99  70  39 S20G28    29.92F HX 105
LIBERAL        SUNNY    100  64  30 S22G29    29.99S HX 103
GOODLAND       PTSUNNY   97  62  31 N6        30.00F HX  98
$$



USA.gov is the U.S. government's official web portal to all federal, state and local government web resources and services.